Regional Weather Roundup
Issued by NWS

Home | Current Version | Previous Version | Graphics & Text | Print | Product List | Glossary On
Versions: 1 2 3 4 5 6 7 8 9 10 11 12 13 14 15 16 17 18 19 20 21 22 23 24 25 26 27 28 29 30 31 32 33 34 35 36 37 38 39 40 41 42 43 44 45 46 47 48 49 50
752
ASUS43 KMPX 191801
RWRMN
WEATHER ROUNDUP FOR MINNESOTA
NATIONAL WEATHER SERVICE TWIN CITIES/CHANHASSEN MN
100 PM CDT SAT AUG 19 2017


NOTE: "FAIR" INDICATES FEW OR NO CLOUDS BELOW 12,000 FEET WITH NO
SIGNIFICANT WEATHER AND/OR OBSTRUCTIONS TO VISIBILITY. N/A MEANS
CURRENT SKY AND/OR WEATHER CONDITIONS ARE NOT AVAILABLE.

MNZ060>063-068>070-191900-
   Twin Cities Metro

CITY           SKY/WX    TMP DP  RH WIND       PRES   REMARKS
TWIN CITIES    SUNNY     75  60  59 SW8       29.95F
6HR MIN TEMP:  60; 6HR MAX TEMP:  76;

ST PAUL        SUNNY     75  61  61 SW9       29.95F
CRYSTAL        SUNNY     75  56  51 SW8       29.94F
BLAINE         MOSUNNY   79  59  50 SW9       29.95F
LAKEVILLE      MOSUNNY   73  63  68 W7        29.96F
EDEN PRAIRIE   SUNNY     76  64  66 W8        29.95F
6HR MIN TEMP:  58; 6HR MAX TEMP:  76;

SOUTH ST PAUL  SUNNY     75  60  57 SW7       29.95F
LAKE ELMO      FAIR      75  63  64 SW7       29.96F
$$
MNZ001>005-007-008-013>017-022>024-027-028-191900-
   Northwest Minnesota

CITY           SKY/WX    TMP DP  RH WIND       PRES   REMARKS
BEMIDJI        SUNNY     79  55  44 W9        29.88F
HALLOCK        SUNNY     82  57  42 S13       29.76F
ROSEAU         SUNNY     82  61  47 SW10G17   29.80F
WARROAD        SUNNY     81  63  54 S7        29.81F
CROOKSTON      SUNNY     81  61  50 SW15      29.82S
FOSSTON        SUNNY     79  57  47 S9        29.86F
DETROIT LAKES  SUNNY     77  61  57 SW8       29.89F
MOORHEAD       SUNNY     77  63  61 S10       29.86S
PARK RAPIDS    SUNNY     79  60  52 SW7       29.89F
MAHNOMEN       FAIR      77  63  60 S10       29.86F
$$
MNZ006-009>011-018-025>026-191900-
   North Central Minnesota

CITY           SKY/WX    TMP DP  RH WIND       PRES   REMARKS
BAUDETTE       SUNNY     82  55  39 SW10      29.82F
FLAG ISLAND    SUNNY     77  63  61 S5        29.78F
INTL FALLS     SUNNY     79  58  48 W9        29.84F
6HR MIN TEMP:  52; 6HR MAX TEMP:  79;

WASKISH        SUNNY     79  61  53 SW8       29.86S
BIG FORK       SUNNY     79  59  50 SW10      29.87F
LONGVILLE      SUNNY     77  63  61 S7        29.90F
GRAND RAPIDS   SUNNY     77  60  55 SW8       29.92F
CRANE LAKE     MOSUNNY   75  57  53 S3        29.87S
ORR            SUNNY     77  57  50 SW6       29.85F
COOK           MOSUNNY   75  57  53 W5        29.88F
WALKER         FAIR      77  59  55 SW8       29.89F
$$
MNZ012-019>021-037-191900-
   Northeast Minnesota

CITY           SKY/WX    TMP DP  RH WIND       PRES   REMARKS
DULUTH         MOSUNNY   77  58  51 W10       29.90F
6HR MIN TEMP:  58; 6HR MAX TEMP:  78;

ELY            SUNNY     75  54  46 W7        29.88F
HIBBING        SUNNY     76  58  53 SW9       29.89F
EVELETH        MOSUNNY   78  52  40 W7        29.90F
DULUTH HARBOR  SUNNY     81  63  54 W9        29.88F
TWO HARBORS    SUNNY     82  64  54 W7        29.86F
GRAND MARAIS     N/A     69  62  78 W8        29.82F
$$
MNZ029>031-032-039>041-046>048-054>057-064-191900-
   West Central Minnesota

CITY           SKY/WX    TMP DP  RH WIND       PRES   REMARKS
FERGUS FALLS   SUNNY     77  63  61 S10       29.88F
WHEATON        SUNNY     77  61  57 SE10      29.90F
MORRIS         SUNNY     75  63  64 S12       29.90F
ALEXANDRIA     SUNNY     75  61  61 SW10      29.93F
ELBOW LAKE     FAIR      76  63  64 S10       29.90F HAZE
WADENA         SUNNY     75  61  60 S8        29.90F
GLENWOOD       SUNNY     75  61  60 SE7       29.93F
APPLETON       SUNNY     77  61  57 S9        29.91F
BENSON         SUNNY     75  61  60 S9        29.93F
ORTONVILLE     SUNNY     75  59  57 MISG      29.90F
MADISON        SUNNY     79  64  61 S9        29.91F
WILLMAR        FAIR      75  63  64 S3        29.95F
$$
MNZ033>034-036-042>043-049>051-058-059-191900-
   Central Minnesota

CITY           SKY/WX    TMP DP  RH WIND       PRES   REMARKS
ST CLOUD       SUNNY     76  60  57 W9        29.93F
6HR MIN TEMP:  52; 6HR MAX TEMP:  77;

SAUK CENTRE    FAIR      75  60  59 S6        29.94F
PAYNESVILLE    SUNNY     74  62  64 S7        29.95F
AITKIN         MOSUNNY   75  63  64 SW8       29.90F
PINE RIVER     MOSUNNY   73  59  60 SW8       29.94F
BRAINERD       MOSUNNY   76  59  55 SW9       29.92F
STAPLES        SUNNY     77  57  50 SW5       29.91F
LONG PRAIRIE   FAIR      73  61  64 SE8       29.93F
LITTLE FALLS   SUNNY     75  59  57 SW7       29.93F
LITCHFIELD     SUNNY     75  63  64 S3        29.95F
BUFFALO        SUNNY     74  59  58 S7        29.96F
MAPLE LAKE     SUNNY     76  64  68 S5        29.95F
HUTCHINSON     SUNNY     73  64  75 SE5       29.97F
$$
MNZ037-044-045-052-053-191900-
   East Central Minnesota

CITY           SKY/WX    TMP DP  RH WIND       PRES   REMARKS
PRINCETON      SUNNY     79  63  57 S6        29.93F
MORA           MOSUNNY   73  59  60 SW9       29.94F
CAMBRIDGE      SUNNY     79  61  53 SW3       29.94F
RUSH CITY      SUNNY     76  60  57 S6        29.93F HAZE
MOOSE LAKE     MOSUNNY   77  59  53 W5        29.89F
HINCKLEY       MOCLDY    77  64  65 SW10      29.93S
CLOQUET        MOSUNNY   79  54  41 SW12G18   29.91S
MCGREGOR       PTSUNNY   77  61  57 SW7       29.92F
$$
MNZ071>073-080-081-089-090-097-098-191900-
   Southwest Minnesota

CITY           SKY/WX    TMP DP  RH WIND       PRES   REMARKS
MONTEVIDEO     SUNNY     79  64  61 SW9       29.92F
GRANITE FALLS  SUNNY     76  63  63 SE8       29.94F
CANBY          SUNNY     78  60  54 CALM      29.92F
MARSHALL       SUNNY     77  62  59 SE10      29.93F
REDWOOD FALLS  SUNNY     75  62  64 VRB5      29.94F
OLIVIA         SUNNY     73  64  73 S6        29.93F
PIPESTONE      MOSUNNY   75  61  60 S9        29.95F
WINDOM         SUNNY     75  61  60 S5        29.96F
WORTHINGTON    SUNNY     74  62  66 S6        29.97F
JACKSON        SUNNY     73  61  64 CALM      29.97F
TRACY          SUNNY     76  63  63 SE8       29.95F
SLAYTON        SUNNY     74  59  60 S7        29.98F
$$
MNZ065>067-074>077-082>085-091>093-191900-
   South Central Minnesota

CITY           SKY/WX    TMP DP  RH WIND       PRES   REMARKS
MANKATO        MOSUNNY   73  62  68 SW7       29.97F
NEW ULM        SUNNY     72  63  73 E3        29.94F
ST JAMES       SUNNY     73  64  73 SE6       29.96F
FAIRMONT       SUNNY     74  63  68 S6        29.96F
GLENCOE        SUNNY     72  67  83 CALM      29.95F
FARIBAULT      MOSUNNY   75  63  64 S7        29.97F
OWATONNA       MOSUNNY   75  64  69 W8        29.97F
WASECA         PTSUNNY   73  63  68 SW8       29.98F
ALBERT LEA     PTSUNNY   79  64  61 S5        29.97F
$$
MNZ078>079-086>088-094>096-191900-
   Southeast Minnesota

CITY           SKY/WX    TMP DP  RH WIND       PRES   REMARKS
ROCHESTER      PTSUNNY   73  63  70 W7        29.98F
6HR MIN TEMP:  52; 6HR MAX TEMP:  75;

RED WING       SUNNY     79  57  47 W6        29.94F
STANTON        SUNNY     76  62  62 S6        29.95F
DODGE CENTER   MOSUNNY   73  61  64 SW7       29.98F
WINONA         SUNNY     77  55  47 SW6       29.97S
AUSTIN         MOSUNNY   75  63  64 SW6       29.98S
PRESTON        SUNNY     74  57  55 SW6       29.99F
$$
ABBREVIATIONS USED IN REMARKS
   TC - TEMPERATURES IN CELSIUS
  WCI - WIND CHILL INDEX
   HX - HEAT INDEX
  VSB - VISIBILITY
$$




USA.gov is the U.S. government's official web portal to all federal, state and local government web resources and services.